Tracking 31027 objects as of 19-Jul-2025
HD Live streaming from Space Station
objects crossing your sky now

ORBCOMM FM 38

Track ORBCOMM FM 38 now!
10-day predictions
ORBCOMM FM 38 is classified as:


NORAD ID: 33060
Int'l Code: 2008-031A
Perigee: 628.8 km
Apogee: 635.2 km
Inclination: 48.4 °
Period: 97.2 minutes
Semi major axis: 7003 km
RCS: 1.1405 m2 (large)
Launch date: June 19, 2008
Source: ORBCOMM (ORB)
Launch site: KAPUSTIN YAR MISSILE AND SPACE COMPLEX (KYMTR)

This spacecraft is one of the 5 ORBCOMM satellites launched on Jun 19, 2008 designed to replenish the company's aging constellation.
Your satellite tracking list
STARLINK-1243
Track 1 satellite(s)




NASA's NSSDC Master Catalog

Two Line Element Set (TLE):
1 33060U 08031A   25199.37455055  .00001235  00000-0  18349-3 0  9993
2 33060  48.4394 166.6092 0004575 180.5263 179.5649 14.81404033919370
Source of the keplerian elements: AFSPC